FOF320 KSEA-MMSD

Flight info

Callsign FOF320
Flight time N/A
Altitude 37000
Route SUMMA2 SUMMA DCT POWEL DCT PITVE DCT FRA DCT LAX J1 TIJ UT6 IMUSU UT25 LTO DCT ENEKO ENEKO1B
Aircraft B738/M-SDE2E3FGHIRVWY/LB1

Departure

Time N/A
Airport Seattle–Tacoma International Airport (KSEA)

Arrival

Time 2026-04-29 16:23
Airport Los Cabos International Airport (MMSD)
Time Latitude Longitude Altitude Speed Heading
2026-04-29 15:21 28.53216 -113.30620 37046 ft 466 kts 153°
2026-04-29 15:21 28.47999 -113.26070 37044 ft 466 kts 153°
2026-04-29 15:22 28.42852 -113.21585 37040 ft 466 kts 153°
2026-04-29 15:22 28.37698 -113.17100 37042 ft 466 kts 153°
2026-04-29 15:23 28.32539 -113.12617 37053 ft 468 kts 153°
2026-04-29 15:23 28.27360 -113.08124 37043 ft 469 kts 153°
2026-04-29 15:24 28.22170 -113.03624 37048 ft 470 kts 153°
2026-04-29 15:24 28.16970 -112.99119 37034 ft 469 kts 153°
2026-04-29 15:25 28.11775 -112.94626 37041 ft 470 kts 153°
2026-04-29 15:25 28.06613 -112.90167 37047 ft 469 kts 153°
2026-04-29 15:26 28.01448 -112.85707 37037 ft 465 kts 153°
2026-04-29 15:26 27.96319 -112.81287 37031 ft 462 kts 153°
2026-04-29 15:27 27.91218 -112.76899 37026 ft 460 kts 153°
2026-04-29 15:27 27.86125 -112.72523 37035 ft 459 kts 153°
2026-04-29 15:28 27.81035 -112.68156 37038 ft 460 kts 153°
2026-04-29 15:28 27.75916 -112.63770 37038 ft 463 kts 153°
2026-04-29 15:29 27.70775 -112.59368 37029 ft 466 kts 153°
2026-04-29 15:30 27.60414 -112.50512 37034 ft 472 kts 153°
2026-04-29 15:30 27.55155 -112.46024 37034 ft 475 kts 153°
2026-04-29 15:31 27.49890 -112.41534 37015 ft 474 kts 153°
2026-04-29 15:31 27.45322 -112.37640 37011 ft 470 kts 153°
2026-04-29 15:32 27.40120 -112.33214 37010 ft 466 kts 153°
2026-04-29 15:32 27.34966 -112.28838 37022 ft 464 kts 153°
2026-04-29 15:33 27.29664 -112.24680 37028 ft 463 kts 158°
2026-04-29 15:33 27.24124 -112.20902 37021 ft 468 kts 159°
2026-04-29 15:34 27.18520 -112.17118 37025 ft 472 kts 159°
2026-04-29 15:34 27.12919 -112.13279 37003 ft 469 kts 158°
2026-04-29 15:35 27.07450 -112.09500 37009 ft 462 kts 158°
2026-04-29 15:35 27.01935 -112.05703 37016 ft 462 kts 158°
2026-04-29 15:36 26.96415 -112.01912 37020 ft 462 kts 158°
2026-04-29 15:36 26.90936 -111.98150 37020 ft 462 kts 158°
2026-04-29 15:37 26.85363 -111.94330 37010 ft 464 kts 158°
2026-04-29 15:37 26.79880 -111.90573 37020 ft 465 kts 158°
2026-04-29 15:38 26.74338 -111.86779 37015 ft 468 kts 158°
2026-04-29 15:38 26.68777 -111.82977 37006 ft 469 kts 158°
2026-04-29 15:39 26.63209 -111.79176 37019 ft 470 kts 158°
2026-04-29 15:39 26.57620 -111.75363 37017 ft 471 kts 158°
2026-04-29 15:40 26.52027 -111.71550 37022 ft 471 kts 158°
2026-04-29 15:40 26.46427 -111.67736 37013 ft 471 kts 158°
2026-04-29 15:41 26.40834 -111.63930 37015 ft 471 kts 158°
2026-04-29 15:41 26.35248 -111.60135 37010 ft 470 kts 158°
2026-04-29 15:42 26.29674 -111.56351 37013 ft 468 kts 158°
2026-04-29 15:42 26.24109 -111.52579 37020 ft 468 kts 157°
2026-04-29 15:43 26.18556 -111.48818 37021 ft 467 kts 157°
2026-04-29 15:43 26.13044 -111.45090 37035 ft 466 kts 157°
2026-04-29 15:44 26.07499 -111.41343 37033 ft 466 kts 157°
2026-04-29 15:44 26.01950 -111.37598 37035 ft 466 kts 157°
2026-04-29 15:45 25.96603 -111.33417 37029 ft 481 kts 143°
2026-04-29 15:45 25.91945 -111.28006 37033 ft 486 kts 140°
2026-04-29 15:46 25.87366 -111.22479 37029 ft 486 kts 140°
2026-04-29 15:46 25.82730 -111.16954 37019 ft 487 kts 140°
2026-04-29 15:47 25.78069 -111.11473 37010 ft 487 kts 140°
2026-04-29 15:47 25.73410 -111.06023 37004 ft 487 kts 140°
2026-04-29 15:48 25.68772 -111.00604 37000 ft 487 kts 140°
2026-04-29 15:48 25.64112 -110.95163 37002 ft 487 kts 140°
2026-04-29 15:49 25.59444 -110.89718 36999 ft 487 kts 140°
2026-04-29 15:49 25.54779 -110.84282 37000 ft 487 kts 140°
2026-04-29 15:50 25.50117 -110.78857 36997 ft 486 kts 140°
2026-04-29 15:50 25.45449 -110.73431 36998 ft 486 kts 140°
2026-04-29 15:51 25.40787 -110.68018 36995 ft 486 kts 140°
2026-04-29 15:51 25.36090 -110.62572 36993 ft 486 kts 140°
2026-04-29 15:52 25.31423 -110.57167 36993 ft 485 kts 140°
2026-04-29 15:52 25.26764 -110.51777 36993 ft 485 kts 140°
2026-04-29 15:53 25.22098 -110.46387 36993 ft 485 kts 140°
2026-04-29 15:53 25.17436 -110.41007 36992 ft 485 kts 140°
2026-04-29 15:54 25.12774 -110.35633 36991 ft 485 kts 140°
2026-04-29 15:54 25.08140 -110.30297 36990 ft 484 kts 140°
2026-04-29 15:55 25.03475 -110.24933 36986 ft 484 kts 140°
2026-04-29 15:55 24.98807 -110.19571 36990 ft 484 kts 140°
2026-04-29 15:56 24.94128 -110.14205 36706 ft 489 kts 140°
2026-04-29 15:56 24.91764 -110.11499 36168 ft 490 kts 139°
2026-04-29 15:56 24.89408 -110.08799 35573 ft 488 kts 139°
2026-04-29 15:56 24.87053 -110.06101 34933 ft 489 kts 139°
2026-04-29 15:57 24.84691 -110.03397 34268 ft 490 kts 138°
2026-04-29 15:57 24.82322 -110.00689 33513 ft 492 kts 138°
2026-04-29 15:57 24.79961 -109.97989 33000 ft 487 kts 138°
2026-04-29 15:57 24.77617 -109.95308 32499 ft 483 kts 138°
2026-04-29 15:58 24.75300 -109.92660 32012 ft 478 kts 138°
2026-04-29 15:58 24.73004 -109.90038 31533 ft 474 kts 138°
2026-04-29 15:58 24.70725 -109.87439 31058 ft 470 kts 138°
2026-04-29 15:58 24.68465 -109.84863 30593 ft 466 kts 138°
2026-04-29 15:59 24.66221 -109.82308 30111 ft 463 kts 138°
2026-04-29 15:59 24.63991 -109.79771 29590 ft 459 kts 138°
2026-04-29 15:59 24.61779 -109.77254 29059 ft 455 kts 138°
2026-04-29 15:59 24.59594 -109.74769 28554 ft 450 kts 138°
2026-04-29 16:00 24.57424 -109.72302 28077 ft 446 kts 138°
2026-04-29 16:00 24.55278 -109.69864 27597 ft 442 kts 138°
2026-04-29 16:00 24.53182 -109.67485 27131 ft 438 kts 138°
2026-04-29 16:00 24.51071 -109.65090 26662 ft 434 kts 138°
2026-04-29 16:01 24.48981 -109.62719 26201 ft 430 kts 138°
2026-04-29 16:01 24.46908 -109.60370 25746 ft 426 kts 138°
2026-04-29 16:01 24.44849 -109.58038 25284 ft 423 kts 138°
2026-04-29 16:01 24.42808 -109.55726 24815 ft 421 kts 138°
2026-04-29 16:02 24.40774 -109.53424 24345 ft 418 kts 138°
2026-04-29 16:02 24.38754 -109.51138 23888 ft 416 kts 138°
2026-04-29 16:02 24.36747 -109.48868 23412 ft 413 kts 138°
2026-04-29 16:02 24.34752 -109.46615 22901 ft 410 kts 138°
2026-04-29 16:03 24.32543 -109.44726 22402 ft 398 kts 156°
2026-04-29 16:03 24.29981 -109.43764 21980 ft 385 kts 173°
2026-04-29 16:03 24.27341 -109.43599 21515 ft 376 kts 188°
2026-04-29 16:03 24.24791 -109.44099 21095 ft 370 kts 195°
2026-04-29 16:04 24.22300 -109.44746 20651 ft 367 kts 196°
2026-04-29 16:04 24.19860 -109.45411 20215 ft 364 kts 196°
2026-04-29 16:04 24.17373 -109.46085 19784 ft 362 kts 196°
2026-04-29 16:04 24.14959 -109.46728 19347 ft 361 kts 196°
2026-04-29 16:05 24.12523 -109.47364 18910 ft 359 kts 195°
2026-04-29 16:05 24.10096 -109.47991 18480 ft 358 kts 195°
2026-04-29 16:05 24.07671 -109.48613 18016 ft 357 kts 195°
2026-04-29 16:05 24.05253 -109.49230 17559 ft 355 kts 195°
2026-04-29 16:06 24.02857 -109.49841 17126 ft 352 kts 195°
2026-04-29 16:06 24.00481 -109.50446 16699 ft 350 kts 195°
2026-04-29 16:06 23.98910 -109.50846 16423 ft 349 kts 195°
2026-04-29 16:06 23.95731 -109.51656 15869 ft 346 kts 195°
2026-04-29 16:07 23.94181 -109.52050 15596 ft 344 kts 195°
2026-04-29 16:07 23.91851 -109.52642 15194 ft 343 kts 194°
2026-04-29 16:07 23.89484 -109.52864 14872 ft 342 kts 178°
2026-04-29 16:07 23.87127 -109.52609 14634 ft 339 kts 175°
2026-04-29 16:08 23.84790 -109.52300 14397 ft 337 kts 175°
2026-04-29 16:08 23.82463 -109.51985 14168 ft 338 kts 175°
2026-04-29 16:08 23.80118 -109.51677 13919 ft 342 kts 175°
2026-04-29 16:08 23.77748 -109.51376 13677 ft 342 kts 175°
2026-04-29 16:09 23.75388 -109.51082 13406 ft 340 kts 175°
2026-04-29 16:09 23.73049 -109.50796 13160 ft 338 kts 175°
2026-04-29 16:09 23.70744 -109.50517 12916 ft 336 kts 175°
2026-04-29 16:09 23.68425 -109.50237 12682 ft 334 kts 175°
2026-04-29 16:10 23.66116 -109.49960 12444 ft 333 kts 175°
2026-04-29 16:10 23.63817 -109.49684 12206 ft 332 kts 175°
2026-04-29 16:10 23.61529 -109.49409 11981 ft 331 kts 175°
2026-04-29 16:10 23.59245 -109.49135 11755 ft 330 kts 175°
2026-04-29 16:11 23.56964 -109.48862 11521 ft 329 kts 175°
2026-04-29 16:11 23.54690 -109.48590 11299 ft 329 kts 175°
2026-04-29 16:11 23.52409 -109.48316 11064 ft 330 kts 175°
2026-04-29 16:11 23.50127 -109.48089 10821 ft 328 kts 181°
2026-04-29 16:12 23.47909 -109.48438 10600 ft 318 kts 194°
2026-04-29 16:12 23.45778 -109.48991 10373 ft 310 kts 195°
2026-04-29 16:12 23.43725 -109.49540 10141 ft 297 kts 195°
2026-04-29 16:12 23.41751 -109.50061 9942 ft 285 kts 195°
2026-04-29 16:13 23.39859 -109.50555 9740 ft 276 kts 194°
2026-04-29 16:13 23.38001 -109.51034 9552 ft 275 kts 194°
2026-04-29 16:13 23.36123 -109.51513 9375 ft 279 kts 194°
2026-04-29 16:13 23.34223 -109.51994 9171 ft 281 kts 194°
2026-04-29 16:14 23.32322 -109.52475 8969 ft 280 kts 194°
2026-04-29 16:14 23.30423 -109.52955 8769 ft 280 kts 194°
2026-04-29 16:14 23.28529 -109.53432 8576 ft 279 kts 194°
2026-04-29 16:14 23.26636 -109.53908 8390 ft 278 kts 194°
2026-04-29 16:15 23.24752 -109.54381 8187 ft 278 kts 194°
2026-04-29 16:15 23.22897 -109.54847 7989 ft 277 kts 194°
2026-04-29 16:15 23.21004 -109.55322 7714 ft 280 kts 194°
2026-04-29 16:15 23.19107 -109.55797 7437 ft 279 kts 194°
2026-04-29 16:16 23.17220 -109.56269 7156 ft 277 kts 194°
2026-04-29 16:16 23.15347 -109.56739 6881 ft 276 kts 194°
2026-04-29 16:16 23.13477 -109.57207 6602 ft 275 kts 194°
2026-04-29 16:16 23.11611 -109.57674 6319 ft 275 kts 194°
2026-04-29 16:17 23.09748 -109.58139 6032 ft 275 kts 194°
2026-04-29 16:17 23.07874 -109.58609 5723 ft 279 kts 193°
2026-04-29 16:17 23.05982 -109.59083 5421 ft 278 kts 193°
2026-04-29 16:17 23.04104 -109.59552 5146 ft 276 kts 193°
2026-04-29 16:18 23.02238 -109.60019 4867 ft 274 kts 193°
2026-04-29 16:18 23.00393 -109.60514 4568 ft 273 kts 200°
2026-04-29 16:18 22.98825 -109.61631 4284 ft 270 kts 229°
2026-04-29 16:18 22.97920 -109.63388 3994 ft 268 kts 254°
2026-04-29 16:19 22.97598 -109.65420 3700 ft 260 kts 264°
2026-04-29 16:19 22.97589 -109.67338 3407 ft 251 kts 285°
2026-04-29 16:19 22.98345 -109.68977 3154 ft 240 kts 313°
2026-04-29 16:19 22.99630 -109.70051 2928 ft 230 kts 335°
2026-04-29 16:20 23.01139 -109.70514 2703 ft 222 kts 353°
2026-04-29 16:20 23.02646 -109.70667 2499 ft 212 kts 355°
2026-04-29 16:20 23.04072 -109.70810 2307 ft 200 kts 354°
2026-04-29 16:20 23.05427 -109.70964 2099 ft 193 kts 354°
2026-04-29 16:21 23.06747 -109.71112 1839 ft 187 kts 354°
2026-04-29 16:21 23.08001 -109.71255 1585 ft 174 kts 354°
2026-04-29 16:21 23.09161 -109.71388 1363 ft 163 kts 354°
2026-04-29 16:21 23.09477 -109.71424 1300 ft 161 kts 354°
2026-04-29 16:22 23.10562 -109.71548 1116 ft 151 kts 354°
2026-04-29 16:22 23.11622 -109.71669 869 ft 155 kts 354°
2026-04-29 16:22 23.12684 -109.71791 661 ft 155 kts 354°
2026-04-29 16:22 23.13755 -109.71913 450 ft 155 kts 354°
2026-04-29 16:23 23.14815 -109.72032 350 ft 149 kts 354°
2026-04-29 16:23 23.15681 -109.72131 369 ft 95 kts 354°
2026-04-29 16:23 23.16128 -109.72181 378 ft 34 kts 354°
2026-04-29 16:23 23.16327 -109.72205 382 ft 28 kts 354°
2026-04-29 16:24 23.16470 -109.72220 386 ft 11 kts 356°
2026-04-29 16:24 23.16538 -109.72205 388 ft 10 kts 49°
2026-04-29 16:24 23.16553 -109.72126 387 ft 11 kts 84°
2026-04-29 16:24 23.16560 -109.72044 387 ft 11 kts 102°
2026-04-29 16:25 23.16505 -109.72017 386 ft 14 kts 173°
2026-04-29 16:25 23.16379 -109.72000 383 ft 20 kts 172°
2026-04-29 16:25 23.16239 -109.71985 379 ft 20 kts 174°
2026-04-29 16:25 23.16138 -109.71948 377 ft 13 kts 103°
2026-04-29 16:26 23.16115 -109.71878 376 ft 8 kts 167°
2026-04-29 16:26 23.16054 -109.71881 375 ft 9 kts 177°
2026-04-29 16:26 23.15978 -109.71874 373 ft 12 kts 175°
2026-04-29 16:26 23.15889 -109.71864 371 ft 13 kts 174°
2026-04-29 16:27 23.15793 -109.71852 369 ft 14 kts 173°
2026-04-29 16:27 23.15692 -109.71840 367 ft 15 kts 174°
2026-04-29 16:27 23.15637 -109.71789 366 ft 9 kts 78°
2026-04-29 16:27 23.15640 -109.71764 369 ft 0 kts 84°